Location: Grand Rapids
(42.9630°N, 85.6680°W)
Time: 03:25:47
(UTC-04:00)

SR - All Passes

Search period start: 30 May 2024 00:00
Search period end: 09 June 2024 00:00
Orbit: 579 x 859 km, 66.7° (Epoch: 29 May)

Date Brightness Start Highest point End Pass type
(mag) Time Alt. Az. Time Alt. Az. Time Alt. Az.
30 May - 01:43:06 10° NNW 01:47:05 35° NE 01:50:58 10° ESE visible
30 May - 03:25:21 10° WNW 03:28:40 23° WSW 03:32:00 10° SSW visible
30 May - 16:12:50 10° SSE 16:16:44 22° ESE 16:20:25 10° ENE daylight
30 May - 17:53:17 10° SW 17:58:18 51° NW 18:02:57 10° NNE daylight
31 May - 00:51:28 10° N 00:54:28 18° NE 00:57:26 10° E visible
31 May - 02:32:28 10° NW 02:36:38 54° WSW 02:40:45 10° SSE visible
31 May - 17:00:48 10° SSW 17:05:59 78° ESE 17:10:46 10° NNE daylight
31 May - 18:44:59 10° W 18:48:18 18° NW 18:51:29 10° N daylight
01 Jun - 01:40:09 10° NNW 01:44:24 63° ENE 01:48:35 10° SE visible
01 Jun - 03:23:54 10° W 03:25:38 12° WSW 03:27:22 10° SW visible
01 Jun - 16:09:05 10° S 16:13:48 36° ESE 16:18:13 10° NE daylight
01 Jun - 17:51:09 10° WSW 17:55:41 32° NW 17:59:54 10° NNE daylight
02 Jun - 00:48:12 10° NNW 00:51:57 29° NE 00:55:39 10° ESE visible
02 Jun - 02:30:02 10° NW 02:33:43 29° WSW 02:37:23 10° S visible
02 Jun - 15:18:30 10° SSE 15:21:47 17° ESE 15:24:55 10° ENE daylight
02 Jun - 16:58:08 10° SW 17:03:14 63° WNW 17:07:57 10° NNE daylight
02 Jun - 18:44:14 10° WNW 18:45:56 12° NW 18:47:36 10° NNW daylight
02 Jun - 23:56:44 10° N 23:59:17 15° NE 00:01:47 10° ENE visible
03 Jun - 01:37:22 10° NW 01:41:36 71° WSW 01:45:49 10° SSE visible
03 Jun - 16:05:51 10° SSW 16:10:57 62° ESE 16:15:40 10° NE daylight
03 Jun - 17:49:25 10° W 17:53:08 21° NW 17:56:40 10° N daylight
04 Jun - 00:45:09 10° NNW 00:49:18 49° NE 00:53:25 10° SE visible
04 Jun - 02:28:06 10° WNW 02:30:41 16° WSW 02:33:18 10° SW visible
04 Jun - 15:14:25 10° S 15:18:49 29° ESE 15:22:56 10° NE daylight
04 Jun - 16:55:50 10° WSW 17:00:33 38° NW 17:04:57 10° NNE daylight
04 Jun - 23:53:19 10° N 23:56:48 23° NE 00:00:13 10° ESE visible
05 Jun - 01:34:47 10° NW 01:38:42 37° WSW 01:42:38 10° S visible
05 Jun - 14:24:26 10° SE 14:26:49 13° ESE 14:29:09 10° ENE daylight
05 Jun - 16:03:01 10° SW 16:08:10 79° WNW 16:12:54 10° NNE daylight
05 Jun - 17:48:14 10° WNW 17:50:41 14° NW 17:53:04 10° N daylight
05 Jun - 23:02:08 10° NNE 23:04:03 13° NE 23:05:56 10° ENE visible
06 Jun - 00:42:16 10° NNW 00:46:33 89° ENE 00:50:47 10° SSE visible
06 Jun - 15:10:58 10° S 15:15:55 49° ESE 15:20:30 10° NE daylight
06 Jun - 16:53:54 10° WSW 16:57:57 24° NW 17:01:47 10° N daylight
06 Jun - 23:50:10 10° NNW 23:54:10 38° NE 23:58:09 10° ESE visible
07 Jun - 01:32:33 10° WNW 01:35:43 21° WSW 01:38:53 10° SSW visible
07 Jun - 14:19:50 10° SSE 14:23:49 23° ESE 14:27:34 10° ENE daylight
07 Jun - 16:00:33 10° SW 16:05:26 47° NW 16:09:57 10° NNE daylight
07 Jun - 22:58:27 10° N 23:01:35 19° NE 23:04:41 10° E visible
08 Jun - 00:39:34 10° NW 00:43:40 49° WSW 00:47:46 10° S visible
08 Jun - 13:31:31 10° ESE 13:31:52 10° ESE 13:32:13 10° E daylight
08 Jun - 15:07:58 10° SSW 15:13:04 84° ESE 15:17:47 10° NNE daylight
08 Jun - 16:52:26 10° W 16:55:27 16° NW 16:58:20 10° N daylight
08 Jun - 22:07:54 10° NNE 22:08:45 10° NE 22:09:36 10° NE visible
08 Jun - 23:47:12 10° NNW 23:51:27 69° ENE 23:55:40 10° SE visible
